Simultaneous Nadir Overpasses (SNOs) Predictions

Prediction of SNOs between GOES-16 and NOAA-19 Satellite Orbit:

Table of predicted SNOs for the next 14.0 days since TLE Epoch: 8/7/2020
Index Date Time (GOES-16) GOES-16 Lat,Lon NOAA-19 Lat,Lon Distance(km) Time Diff (sec)
1 08/07/2020 22:50:19 0.07, -75.21 0.88, -71.66 404.02 80
2 08/09/2020 11:23:00 -0.06, -75.23 0.90, -79.49 485.36 80
3 08/10/2020 11:11:18 -0.07, -75.24 0.24, -76.63 158.38 80
4 08/11/2020 10:56:57 -0.07, -75.25 -0.43, -73.78 168.74 80
5 08/12/2020 10:45:15 -0.07, -75.26 -1.10, -70.92 495.85 80
6 08/13/2020 23:20:34 0.07, -75.26 -0.75, -78.73 395.65 80
7 08/14/2020 23:08:52 0.07, -75.27 -0.08, -75.87 68.36 80
8 08/15/2020 22:54:31 0.08, -75.29 0.60, -73.02 258.98 80
9 08/18/2020 11:18:11 -0.08, -75.34 0.52, -77.99 301.96 80
10 08/19/2020 11:03:49 -0.09, -75.35 -0.15, -75.13 25.77 80
11 08/20/2020 10:52:08 -0.09, -75.37 -0.83, -72.28 353.60 80
